Vertical_Velocity
-1 -0 -0 -1 -1 -1 -1 -0 -1 -1 -1 -0 -0 -0 -1 -1 -1 -1 -1 -1 -1 -2 -1 -1 -2 -1 -1 -1 -1 -1 -2 -2 -2 -2 -2 -0 -2 -0 1 -1 -1 -2 -2 -1
-2 -1 -1 -1 -1 -1 -1 -1 -2 -1 -0 -1 -1 -1 -1 -1 -1 -1 -0 -0 -1 -0 -1 -2 -2 -1 -1 -1 -2 -2 -2 -2 -2 -2 -0 -0 -0 0 0 -1 -2 -2 -1 -1
-1 0 0 -1 -2 -2 -1 -1 -1 -1 -1 -1 -0 -1 -0 -1 -1 -2 -1 -1 -1 -2 -2 -2 -1 -2 -2 -3 -3 -2 -2 -3 -2 -1 -1 -0 -1 -3 -1 1 -1 -1 -1 -1
-0 -1 -1 -1 -2 -2 -1 -1 -1 -1 -1 -1 -0 0 -0 -1 -2 -0 -1 -1 -1 -2 -1 -2 -1 -2 -2 -2 -3 -2 -2 -2 -1 -1 -0 -1 -2 -1 -2 -1 0 -1 1 -1
-2 -2 -2 -1 -1 -2 -2 -0 -1 0 1 0 0 -0 -1 -1 -1 -3 -2 -1 -2 -2 -2 -2 -2 -2 -2 -2 -2 -2 -1 -0 -0 -0 0 -1 -1 -1 -1 -2 -1 -0 0 -1
-1 0 1 -0 -0 -1 -0 -0 0 1 1 0 -1 -0 -1 -2 -2 -2 -3 -3 -3 -2 -2 -1 -2 -2 -1 -1 -1 -1 -1 1 0 0 -0 0 -2 -1 -3 -1 -1 -3 0 -1
-0 -0 0 0 -0 -1 -0 0 -1 -0 -1 0 1 0 -1 -1 -1 -2 -3 -2 -2 -1 -0 -2 -2 -2 -1 -1 -1 -1 -2 -1 -0 -0 -1 -1 -0 -0 -1 -1 -1 -1 -3 -1
1 2 -1 -1 -1 -1 -1 -0 0 -1 -2 -2 -3 -3 -3 -3 -2 -1 -1 -1 -2 -2 -1 -2 -2 -2 -1 -1 -2 -2 -2 -3 -1 -1 -0 -1 -1 -0 -1 -2 -1 -1 -0 -3
-1 2 0 -0 -0 -0 -3 -0 -1 -0 -0 0 -1 -1 -1 -0 -1 -0 -1 -1 -1 -0 -1 -1 -2 -2 -1 -2 -2 -2 -2 -2 -1 -2 -2 -1 -1 -1 -1 -1 -1 1 -2 -2
0 -0 0 -0 -1 -0 -1 -1 -2 -3 -1 -1 1 0 -2 -2 -1 -1 -1 -2 -2 -2 -1 -2 -2 -2 -2 -3 -2 -1 -1 -2 -2 -2 -2 -4 -3 -1 -1 1 -0 -1 -1 -1
2 2 1 -1 2 -2 -1 1 0 -1 -1 0 0 -1 -0 -2 -1 -1 -1 0 -0 -1 -0 -0 -1 -0 -1 -1 -1 -1 -2 -0 -1 -1 0 -0 -2 -4 -2 -1 -0 -1 -2 -1
-2 -0 1 0 -1 -0 -1 -1 2 1 1 -2 -2 -1 -1 -0 -2 -1 1 2 1 1 0 -0 -0 -0 1 -0 -1 -1 -1 -0 2 0 -1 -1 -2 -2 -2 -1 -0 0 -0 -1
3 4 0 1 0 4 4 3 1 -1 -2 -1 -1 2 -1 -1 1 -1 -2 0 0 -1 -1 -1 -1 -1 -1 -2 -2 -1 -2 -1 -1 -2 -2 -2 -2 -2 -1 -2 -1 -1 -0 -1
-5 1 2 2 -3 -3 2 1 -2 -4 -2 6 4 -1 -1 -1 1 1 -3 -1 -2 -1 1 -0 -1 -1 -0 -3 -4 -3 -0 -1 -2 -1 -2 -0 -1 -1 -0 -0 1 0 -1 -1
-2 4 1 -2 -1 -1 -0 -0 -3 2 2 -3 4 2 -7 -1 -1 5 0 -2 -0 -3 -0 0 -1 -1 -2 -1 -1 -3 -1 0 0 -1 -2 0 0 -2 -2 -1 -0 -1 -2 -2
2 -0 -0 -0 -3 -0 1 -4 -2 -1 -1 5 2 -1 3 -10 1 5 -0 2 -0 -1 1 -0 -1 -0 -1 0 -2 -2 -3 -2 2 -1 -0 -1 0 -1 -2 -2 -1 -1 0 0
-8 -2 2 -0 -3 -4 -20 5 2 -1 -3 4 -1 6 5 -2 -7 -1 -1 3 -5 -1 0 -2 -2 -2 -3 -1 2 -3 -5 -3 -0 -1 -2 -2 1 1 1 1 -0 -1 -0 1
-2 3 -1 2 -2 -30 23 4 0 -4 -0 -3 1 1 -1 0 -3 1 -2 0 -2 -3 2 -2 -2 -3 -3 -2 0 1 -2 -1 1 -3 1 -4 -1 1 1 1 1 1 0 -1
-1 0 -5 -17 1 8 -4 13 1 -4 13 -3 -4 4 3 -6 -4 10 1 -2 -1 -1 -3 -1 -0 -2 -2 -5 -1 0 -4 -0 -4 0 1 1 -1 2 -0 2 1 -1 -3 -1
2 1 -10 2 -11 -15 26 4 2 -1 -16 -3 -1 6 -5 -4 -5 15 -14 7 2 -1 -0 -1 -1 0 -3 -6 -4 -3 -5 -2 0 1 1 0 -4 -3 -1 -1 -0 1 -0 3
8 8 -9 1 -17 -10 8 4 18 -28 45 12 -5 -3 -4 -4 -9 0 1 -3 -0 -0 1 0 -1 -1 -3 -6 -4 -1 1 -2 -0 1 -2 -2 -1 -2 -4 2 -2 3 1 -3
5 8 9 0 -15 -46 14 10 7 17 -10 -4 1 2 0 -1 -3 -3 -3 -4 -1 1 2 2 2 2 -1 -5 -1 1 -2 -1 -0 -2 -2 -3 -1 -3 -1 -1 2 0 -4 -1
-34 1 2 -5 1 10 9 8 3 3 -2 -6 -3 -3 -0 3 -1 -1 -4 0 1 1 2 1 1 -1 3 -3 -5 1 -2 -1 3 -1 -1 -2 2 1 -1 -0 -0 3 -1 -5
-11 6 -11 4 19 6 1 4 4 1 1 -4 -4 -2 -1 0 -3 -3 0 -1 -0 -1 -1 -0 -3 -2 6 -5 -2 -9 -4 0 -0 1 -1 -2 0 4 0 -0 -3 -1 -1 0
9 9 4 -14 -5 8 8 12 6 1 -4 1 -2 -0 0 1 0 0 -2 -1 -1 2 2 1 -0 1 -1 -3 1 -4 -2 4 2 -0 -3 -1 1 -1 3 1 -3 -0 -2 -10
-8 3 -14 -1 28 -2 11 6 -3 -5 -2 3 -7 5 6 1 0 0 -1 -4 0 -0 -2 -4 -1 2 -4 -3 2 -4 -0 1 -3 3 -2 -1 0 1 -4 -2 12 -9 -1 -3
Height
5898 5900 5901 5902 5904 5906 5907 5908 5910 5911 5913 5914 5914 5914 5915 5916 5917 5917 5917 5917 5917 5916 5916 5914 5913 5912 5910 5908 5906 5904 5901 5898 5895 5892 5889 5886 5884 5881 5878 5874 5870 5867 5864 5861
5899 5900 5901 5903 5904 5906 5908 5910 5911 5912 5913 5914 5915 5916 5916 5917 5918 5918 5918 5918 5917 5917 5916 5914 5913 5912 5910 5907 5905 5902 5900 5897 5894 5891 5887 5884 5881 5878 5875 5872 5867 5863 5860 5857
5897 5900 5901 5903 5905 5906 5908 5909 5911 5912 5913 5914 5916 5917 5917 5918 5918 5918 5918 5918 5918 5917 5916 5915 5913 5911 5909 5906 5903 5900 5898 5895 5892 5888 5885 5882 5878 5875 5871 5868 5864 5860 5856 5853
5897 5899 5901 5903 5905 5906 5907 5909 5910 5912 5914 5915 5916 5918 5918 5918 5918 5918 5918 5918 5918 5917 5916 5914 5912 5910 5908 5906 5903 5900 5897 5894 5890 5886 5883 5880 5876 5872 5868 5864 5860 5857 5853 5849
5898 5899 5901 5903 5904 5906 5908 5909 5911 5913 5914 5915 5916 5918 5918 5918 5918 5917 5917 5917 5917 5916 5915 5913 5912 5910 5908 5905 5903 5899 5896 5892 5888 5884 5881 5877 5873 5869 5865 5861 5856 5852 5848 5844
5896 5898 5900 5902 5903 5905 5907 5909 5911 5912 5914 5915 5916 5917 5917 5917 5917 5916 5916 5916 5915 5914 5913 5912 5910 5909 5906 5904 5901 5897 5894 5890 5886 5882 5878 5874 5870 5866 5861 5857 5852 5848 5843 5839
5894 5897 5899 5901 5903 5904 5907 5909 5911 5913 5913 5915 5915 5916 5916 5916 5916 5916 5915 5914 5914 5913 5912 5910 5909 5906 5904 5901 5898 5895 5891 5888 5884 5880 5875 5871 5867 5863 5858 5853 5848 5843 5838 5833
5894 5897 5898 5900 5902 5904 5906 5909 5910 5911 5912 5914 5914 5915 5915 5915 5914 5914 5914 5913 5912 5911 5910 5908 5906 5904 5901 5899 5896 5892 5889 5885 5881 5877 5873 5868 5864 5859 5854 5849 5843 5838 5833 5828
5892 5894 5896 5898 5900 5903 5905 5907 5909 5910 5910 5912 5913 5912 5912 5912 5912 5912 5911 5911 5910 5909 5908 5905 5903 5900 5898 5895 5892 5889 5885 5881 5877 5873 5868 5864 5859 5855 5849 5844 5839 5834 5828 5823
5890 5892 5893 5896 5898 5901 5902 5905 5906 5907 5908 5909 5909 5910 5910 5910 5909 5909 5908 5908 5907 5907 5905 5902 5900 5898 5895 5892 5889 5885 5880 5876 5871 5867 5862 5858 5853 5848 5844 5839 5834 5828 5822 5816
5888 5890 5892 5893 5896 5897 5899 5900 5902 5904 5905 5906 5907 5908 5907 5906 5905 5905 5905 5904 5904 5903 5901 5899 5896 5893 5891 5887 5884 5880 5876 5871 5866 5862 5857 5853 5848 5843 5838 5833 5826 5821 5815 5809
5882 5884 5886 5889 5890 5892 5894 5896 5898 5900 5903 5903 5904 5905 5903 5902 5901 5901 5900 5900 5899 5898 5897 5894 5892 5889 5886 5883 5879 5875 5871 5866 5861 5856 5851 5846 5841 5836 5831 5825 5819 5813 5807 5801
5876 5878 5881 5883 5887 5889 5890 5892 5894 5896 5897 5898 5899 5901 5898 5898 5897 5896 5896 5895 5895 5894 5892 5889 5887 5884 5881 5877 5874 5870 5865 5860 5856 5851 5845 5840 5834 5829 5823 5817 5811 5805 5799 5793
5868 5871 5875 5879 5880 5882 5884 5886 5888 5889 5891 5893 5894 5893 5894 5893 5893 5893 5892 5891 5890 5889 5886 5883 5881 5878 5875 5872 5867 5863 5859 5855 5850 5844 5838 5832 5826 5821 5816 5809 5803 5796 5790 5785
5859 5865 5868 5870 5873 5875 5877 5879 5881 5883 5885 5885 5889 5888 5886 5886 5885 5888 5886 5885 5884 5882 5880 5877 5875 5872 5869 5865 5861 5857 5853 5848 5842 5835 5829 5823 5817 5812 5806 5800 5794 5788 5782 5776
5852 5856 5859 5862 5864 5866 5867 5870 5873 5875 5879 5880 5881 5884 5880 5875 5876 5880 5878 5877 5876 5874 5872 5870 5868 5865 5861 5858 5854 5850 5844 5838 5833 5825 5819 5813 5809 5803 5797 5791 5786 5780 5773 5767
5839 5844 5848 5850 5853 5854 5853 5866 5867 5869 5872 5873 5871 5878 5873 5870 5868 5871 5870 5869 5867 5866 5864 5862 5861 5858 5855 5851 5847 5842 5836 5829 5823 5816 5809 5803 5798 5793 5787 5783 5776 5770 5764 5758
5830 5834 5837 5839 5843 5838 5850 5858 5858 5862 5864 5864 5865 5868 5864 5862 5861 5862 5863 5860 5859 5857 5855 5853 5851 5849 5845 5840 5836 5832 5826 5819 5812 5806 5800 5792 5787 5782 5777 5771 5765 5759 5753 5748
5819 5823 5826 5828 5834 5837 5840 5849 5855 5852 5856 5855 5858 5858 5854 5852 5850 5855 5851 5849 5851 5848 5844 5842 5840 5838 5834 5829 5825 5819 5814 5807 5800 5796 5790 5783 5776 5771 5766 5759 5754 5748 5743 5736
5808 5813 5815 5819 5820 5825 5835 5838 5844 5845 5843 5850 5848 5845 5843 5841 5841 5846 5838 5842 5840 5837 5834 5832 5830 5826 5822 5817 5813 5809 5803 5796 5789 5784 5779 5772 5765 5759 5752 5746 5742 5736 5731 5724
5794 5800 5803 5809 5810 5818 5826 5830 5831 5836 5844 5838 5835 5834 5833 5833 5832 5831 5831 5829 5828 5827 5823 5821 5818 5814 5809 5805 5800 5795 5791 5783 5778 5771 5764 5757 5751 5745 5739 5733 5727 5723 5716 5710
5784 5789 5792 5795 5796 5800 5815 5820 5823 5825 5821 5821 5822 5823 5823 5822 5821 5820 5819 5818 5816 5815 5812 5810 5807 5803 5798 5793 5788 5783 5777 5769 5764 5758 5751 5744 5738 5732 5726 5720 5713 5707 5701 5695
5768 5776 5782 5787 5792 5796 5803 5806 5809 5806 5806 5809 5810 5810 5809 5810 5810 5809 5809 5807 5805 5803 5801 5798 5795 5792 5786 5780 5774 5768 5761 5755 5750 5745 5739 5732 5726 5719 5712 5707 5701 5694 5686 5679
5753 5762 5767 5771 5780 5783 5787 5793 5796 5795 5793 5794 5794 5794 5796 5796 5797 5798 5797 5795 5793 5790 5787 5785 5782 5778 5772 5764 5758 5752 5747 5742 5737 5731 5724 5718 5712 5705 5698 5691 5684 5678 5670 5662
5737 5745 5753 5758 5761 5769 5773 5780 5783 5780 5777 5777 5779 5780 5780 5782 5784 5785 5784 5782 5779 5776 5774 5771 5767 5763 5757 5751 5745 5737 5731 5727 5722 5716 5710 5704 5697 5691 5685 5676 5667 5661 5650 5642
5719 5727 5734 5746 5757 5757 5759 5760 5760 5761 5763 5765 5764 5764 5766 5768 5769 5770 5768 5766 5764 5762 5759 5755 5751 5746 5741 5735 5730 5722 5717 5713 5707 5701 5694 5688 5682 5675 5667 5661 5653 5639 5633 5623